EW9487 Weather Reports


time (UTC)temp
C
wind
direction
speed
KPH
gust
KPH
rain 1hr
cm
rain 24hr
cm
rain mn
cm
humidity
%
barometer
mb
20260510161600 28 290 1.6 4.8 0.00 0.00 0.00 34 1013.6
20260510160100 29 301 0.0 3.2 0.00 0.00 0.00 33 1013.7
20260510154553 28 283 0.0 3.2 0.00 0.00 0.00 41 1013.7
20260510153059 28 15 0.0 0.0 0.00 0.00 0.00 42 1013.6
20260510151555 28 276 0.0 0.0 0.00 0.00 0.00 45 1013.8
20260510150043 27 96 0.0 4.8 0.00 0.00 0.00 43 1013.7
20260510144542 26 250 0.0 0.0 0.00 0.00 0.00 49 1013.7
20260510143038 26 285 0.0 0.0 0.00 0.00 0.00 51 1013.5
20260510141534 24 241 0.0 0.0 0.00 0.00 0.00 54 1013.5
20260510140035 23 207 0.0 0.0 0.00 0.00 0.00 62 1013.6
20260510134530 21 229 0.0 0.0 0.00 0.00 0.00 67 1013.6
20260510133029 20 155 0.0 0.0 0.00 0.00 0.00 68 1013.8
20260510131530 19 188 0.0 0.0 0.00 0.00 0.00 64 1013.8
20260510130027 18 233 0.0 0.0 0.00 0.00 0.00 56 1013.7
20260510124529 17 46 0.0 0.0 0.00 0.00 0.00 48 1013.6
20260510123130 17 343 0.0 0.0 0.00 0.00 0.00 46 1013.6
20260510121519 18 295 0.0 0.0 0.00 0.00 0.00 51 1013.3
20260510120019 18 295 0.0 0.0 0.00 0.00 0.00 28 1013.1
20260510114524 17 295 0.0 0.0 0.00 0.00 0.00 18 1012.9
20260510114518 17 295 0.0 0.0 0.00 0.00 0.00 17 1012.9
20260510113046 15 295 0.0 0.0 0.00 0.00 0.00 18 1012.6
20260510111540 12 295 0.0 0.0 0.00 0.00 0.00 22 1012.5
20260510110031 -17 0.0 0.0 0.00 0.00 0.00 1012.2
20260510104523 -17 0.0 0.0 0.00 0.00 0.00 1012.0
20260510103028 -17 0.0 0.0 0.00 0.00 0.00 1011.8
20260510101523 -17 0.0 0.0 0.00 0.00 0.00 1011.7
20260510100029 -17 0.0 0.0 0.00 0.00 0.00 1011.6
20260510094515 -17 0.0 0.0 0.00 0.00 0.00 1011.0
20260510093007 -17 0.0 0.0 0.00 0.00 0.00 1010.9
20260510091503 13 172 0.0 0.0 0.00 0.00 0.00 23 1010.7
20260510090103 13 166 0.0 0.0 0.00 0.00 0.00 22 1010.6
20260510084612 14 166 0.0 0.0 0.00 0.00 0.00 22 1010.5
20260510083057 14 166 0.0 0.0 0.00 0.00 0.00 23 1010.3
20260510081558 14 166 0.0 0.0 0.00 0.00 0.00 25 1010.4
20260510080028 14 166 0.0 0.0 0.00 0.00 0.00 25 1010.3
20260510074520 15 166 0.0 0.0 0.00 0.00 0.00 25 1010.4
20260510073017 15 166 0.0 0.0 0.00 0.00 0.00 24 1010.3
20260510071518 15 166 0.0 0.0 0.00 0.00 0.00 24 1010.2
20260510070014 15 166 0.0 0.0 0.00 0.00 0.00 26 1010.2
20260510064518 15 166 0.0 0.0 0.00 0.00 0.00 27 1010.3
20260510063009 16 166 0.0 0.0 0.00 0.00 0.00 27 1010.2
20260510061508 15 166 0.0 0.0 0.00 0.00 0.00 29 1010.3
20260510060008 16 166 0.0 0.0 0.00 0.00 0.00 28 1010.5
20260510054506 16 166 0.0 0.0 0.00 0.00 0.00 27 1010.6
20260510053005 16 166 0.0 0.0 0.00 0.00 0.00 29 1010.6
20260510051502 15 166 0.0 0.0 0.00 0.00 0.00 29 1010.7
20260510044600 15 166 0.0 0.0 0.00 0.00 0.00 38 1010.7
20260510043108 15 166 0.0 0.0 0.00 0.00 0.00 38 1010.7
20260510041553 15 166 0.0 0.0 0.00 0.00 0.00 41 1010.7
20260510040058 15 166 0.0 0.0 0.00 0.00 0.00 44 1010.6
20260510034552 15 166 0.0 0.0 0.00 0.00 0.00 49 1010.4
20260510033058 15 166 0.0 0.0 0.00 0.00 0.00 54 1010.2
20260510031544 15 166 0.0 0.0 0.00 0.00 0.00 57 1010.2
20260510030045 15 166 0.0 0.0 0.00 0.00 0.00 61 1010.2
20260510024540 16 166 0.0 0.0 0.00 0.00 0.00 63 1010.1
20260510023036 16 166 0.0 0.0 0.00 0.00 0.00 65 1010.0
20260510021533 16 166 0.0 0.0 0.00 0.00 0.00 67 1009.9
20260510020029 16 166 0.0 0.0 0.00 0.00 0.00 67 1009.7
20260510014527 16 166 0.0 0.0 0.00 0.00 0.00 69 1009.5
20260510013022 17 166 0.0 0.0 0.00 0.00 0.00 71 1009.3
20260510011533 17 166 0.0 0.0 0.00 0.00 0.00 71 1009.3
20260510010014 18 166 0.0 0.0 0.00 0.00 0.00 71 1009.0
20260510004512 18 166 0.0 0.0 0.00 0.00 0.00 70 1008.8
20260510003004 20 166 0.0 0.0 0.00 0.00 0.00 69 1008.8
20260510001600 20 166 0.0 0.0 0.00 0.00 0.00 68 1008.5
20260510000106 21 166 0.0 0.0 0.00 0.00 0.00 65 1008.4
20260509234600 21 166 0.0 0.0 0.00 0.00 0.00 63 1008.1
20260509233051 22 168 0.0 3.2 0.00 0.00 0.00 63 1007.9
20260509231517 22 165 0.0 0.0 0.00 0.00 0.00 62 1008.0
20260509230014 22 206 0.0 0.0 0.00 0.00 0.00 60 1008.1
20260509224510 23 229 0.0 1.6 0.00 0.00 0.00 58 1007.9
20260509223006 23 155 0.0 4.8 0.00 0.00 0.00 56 1008.0
20260509221505 24 246 0.0 0.0 0.00 0.00 0.00 55 1007.9
20260509220004 24 168 0.0 0.0 0.00 0.00 0.00 54 1007.7
20260509214501 25 198 0.0 1.6 0.00 0.00 0.00 52 1007.8
20260509213101 25 238 0.0 4.8 0.00 0.00 0.00 50 1007.6
20260509211602 25 172 1.6 6.4 0.00 0.00 0.00 48 1007.5
20260509210107 26 212 0.0 3.2 0.00 0.00 0.00 47 1007.5
20260509204558 25 138 0.0 9.7 0.00 0.00 0.00 47 1007.6
20260509203057 25 210 0.0 3.2 0.00 0.00 0.00 51 1007.6
20260509201556 26 264 1.6 8.0 0.00 0.00 0.00 47 1007.7
20260509200105 25 144 1.6 8.0 0.00 0.00 0.00 49 1007.8
20260509194526 25 241 0.0 6.4 0.00 0.00 0.00 53 1007.8
20260509193022 25 221 3.2 6.4 0.00 0.00 0.00 50 1008.2
20260509191519 24 227 3.2 9.7 0.00 0.00 0.00 53 1008.3
20260509190013 24 156 0.0 0.0 0.00 0.00 0.00 54 1008.6
20260509184512 24 167 0.0 0.0 0.00 0.00 0.00 53 1008.7
20260509183011 24 159 3.2 8.0 0.00 0.00 0.00 50 1008.8
20260509181502 25 213 0.0 8.0 0.00 0.00 0.00 48 1008.9
20260509180058 26 228 0.0 6.4 0.00 0.00 0.00 44 1009.1
20260509174553 26 228 0.0 4.8 0.00 0.00 0.00 47 1009.2
20260509173102 25 151 3.2 8.0 0.00 0.00 0.00 48 1009.3
20260509171547 25 224 0.0 4.8 0.00 0.00 0.00 48 1009.3
20260509170046 25 257 0.0 4.8 0.00 0.00 0.00 50 1009.4
20260509164542 24 184 1.6 6.4 0.00 0.00 0.00 52 1010.1
20260509163041 23 167 3.2 8.0 0.00 0.00 0.00 53 1010.4